{"data":{"norad_id":58393,"intl_designator":"2023-178V","name":"STARLINK-30939","alt_names":[],"object_type":"PAYLOAD","status":"ACTIVE","operator":null,"country":"US","launch_date":"2023-11-20","launch_site_code":"AFWTR","launch_vehicle":null,"mission":null,"orbit_class":"UNKNOWN","rcs_meters":null,"size_class":null,"mass_kg":null,"dimensions":null,"purposes":["comms"],"wikipedia_slug":null,"has_3d_model":false,"image_url":null,"decayed_at":null,"tle_current":{"epoch":"2026-09-20T11:07:09.826752Z","epoch_age_seconds":146861,"freshness":"FRESH","line1":"1 58393U 23178V   26263.46330818 -.00000450  00000+0 -21973-5 0  9998","line2":"2 58393  53.1600 172.0066 0001316  77.6712 282.4438 15.34382783159648","mean_motion":15.34382783,"eccentricity":0.0001316,"inclination_deg":53.16,"raan_deg":172.0066,"arg_perigee_deg":77.6712,"mean_anomaly_deg":282.4438,"bstar":-2.1973e-6,"rev_number":15964,"period_min":93.848811128116,"perigee_km":461.85415192794,"apogee_km":463.6546745479,"semimajor_km":6840.8914132379,"source":"CELESTRAK","updated_at":"2026-09-21T09:00:33.868528Z"}}}